Theta_e
322 323 323 322 324 324 323 322 322 322 320 314 309 310 311 310 307 305 306 306 306 307 310 310 310 310 309 307 306 305 306 307 306 306 306 306 305 306 308 309 310 311 312 313 314 314 312 312 314 316 316 314 314 314 315 316 316 315 315 315 316 316 316 316 316 315 314 312 309 308 308 308 308 308 308 309 310 309 307 306 307 306 306 307 309
321 323 323 324 325 326 324 323 322 321 318 311 310 312 314 312 308 305 305 305 306 309 311 311 310 310 310 310 308 306 306 306 307 308 307 306 307 310 312 313 312 313 314 315 315 314 313 312 313 314 314 314 314 314 314 315 315 315 315 316 316 315 316 316 316 315 314 312 310 309 309 309 309 308 308 309 310 310 308 307 307 307 307 308 309
326 326 327 327 327 326 325 323 322 321 317 312 311 314 314 311 308 305 305 305 306 310 314 313 312 313 313 311 310 309 308 308 309 308 306 307 310 313 314 313 313 313 314 314 313 313 313 312 310 311 311 314 316 315 314 315 315 316 315 315 316 315 315 316 316 315 314 313 312 310 309 310 311 310 309 309 310 310 309 309 309 309 309 309 309
328 328 328 328 328 327 326 324 322 321 319 314 314 315 315 311 306 304 306 307 310 314 315 314 314 315 314 313 312 312 311 310 309 308 306 307 311 313 314 313 312 312 313 313 313 312 312 311 310 309 310 312 314 314 314 314 315 315 315 315 315 314 315 315 315 315 314 314 313 311 311 311 311 310 310 310 311 310 310 310 310 310 310 310 310
328 328 328 328 328 329 327 324 322 321 320 318 318 319 319 313 306 307 311 313 315 316 314 314 316 316 316 315 314 313 312 311 311 311 309 308 310 312 313 312 312 312 312 313 313 313 312 312 313 311 310 310 312 313 314 314 315 315 315 315 315 314 314 315 315 315 314 314 314 313 312 312 312 312 311 311 311 310 311 311 310 311 311 311 311
328 327 327 328 328 328 327 325 323 322 322 322 321 321 322 318 314 314 316 316 316 316 314 314 315 316 316 316 316 315 313 311 313 314 312 310 311 311 312 312 312 314 314 314 315 315 314 316 316 315 315 314 315 315 316 315 315 316 315 315 315 314 315 316 316 315 315 315 315 314 314 314 313 313 312 312 311 311 311 311 311 311 311 311 310
327 326 326 327 328 328 327 325 325 324 323 323 322 322 322 321 319 318 318 317 316 316 315 314 315 315 314 314 315 315 312 310 311 312 311 311 311 311 312 312 312 315 316 316 317 317 317 318 318 318 317 318 317 317 317 316 315 316 315 316 315 315 315 316 316 316 316 315 315 315 314 314 314 313 313 312 312 311 311 312 311 311 311 311 309
327 326 326 326 326 327 327 326 325 325 324 323 322 323 323 322 321 319 319 319 318 317 316 315 315 314 313 314 314 313 313 312 311 310 310 310 310 312 315 314 315 318 319 319 319 319 319 319 319 319 319 318 318 317 317 317 316 316 316 316 315 315 315 314 315 315 316 315 315 315 314 314 313 313 313 313 312 312 312 312 312 311 310 309 308
326 325 325 325 324 324 325 325 325 324 324 323 322 323 323 322 321 320 319 319 319 319 318 317 316 315 315 314 314 313 314 314 314 312 312 313 313 315 317 318 319 319 319 319 319 319 319 319 318 319 319 318 318 318 317 317 317 317 316 316 316 316 315 315 315 315 315 315 315 314 314 314 313 313 313 313 313 313 312 311 311 310 309 308 308
324 325 325 325 324 324 324 323 324 324 323 323 323 323 323 321 321 321 320 319 319 320 319 319 318 317 316 316 315 315 314 315 316 315 315 316 317 317 317 318 319 319 318 318 318 318 319 319 318 319 318 318 318 317 317 317 316 316 316 316 316 315 315 315 315 315 315 315 315 315 314 313 312 312 313 312 312 312 311 311 310 310 309 308 308
322 323 324 324 323 323 322 320 321 321 321 322 323 323 322 322 321 321 321 320 320 321 320 320 319 319 319 318 316 316 315 315 316 316 316 318 318 318 317 317 318 318 317 317 317 317 318 318 318 317 317 317 317 317 316 316 316 315 315 315 315 315 315 315 315 315 315 315 315 314 314 313 313 312 312 312 312 311 310 310 310 310 309 308 308
320 320 320 321 322 322 321 320 320 320 320 321 322 323 323 323 322 322 322 322 320 320 320 320 320 320 320 319 318 317 317 316 316 316 317 318 318 317 316 317 318 318 317 317 317 317 317 317 317 316 315 315 315 315 314 314 314 315 315 315 315 315 315 315 315 315 315 315 314 314 314 313 313 313 312 312 311 311 310 310 310 309 307 307 307
316 316 316 317 318 319 320 321 321 321 321 321 322 322 322 323 323 323 323 323 321 320 319 320 320 320 319 319 319 319 319 318 318 317 317 317 317 315 314 315 317 318 318 318 317 316 316 315 315 315 315 314 313 312 312 311 310 310 312 314 315 315 316 316 316 316 315 315 313 313 313 313 313 313 312 312 311 311 310 309 308 307 306 306 306
313 313 313 313 314 315 316 318 318 319 320 320 321 322 321 321 322 321 322 323 322 321 319 319 320 320 320 319 319 320 320 320 319 319 319 318 317 315 313 314 316 317 318 318 317 316 315 314 314 314 313 313 311 309 309 308 306 306 308 309 310 311 312 313 314 315 316 315 314 312 312 312 312 312 312 311 310 309 308 307 307 306 306 306 305
311 311 311 311 311 312 313 314 315 316 317 318 319 319 319 319 320 319 320 320 321 321 320 320 321 321 320 320 319 319 319 319 319 320 320 320 318 316 314 314 315 317 317 317 316 315 315 315 314 313 312 311 310 309 308 305 305 308 308 306 304 305 305 306 309 311 314 315 315 313 312 311 311 310 309 309 308 307 306 306 306 306 305 305 304
309 309 309 309 309 310 311 311 312 313 314 315 316 317 318 319 319 320 320 319 319 320 319 321 322 322 322 321 319 319 319 319 319 318 318 319 319 318 315 314 315 316 316 316 316 315 314 315 315 314 313 312 311 310 308 304 304 306 306 303 303 303 303 304 308 310 312 313 313 313 311 310 309 308 307 306 306 305 306 305 305 305 304 303 302
307 307 307 308 308 308 308 309 310 311 312 312 313 315 316 317 318 319 319 320 321 320 319 319 319 319 320 320 319 319 319 319 319 318 317 316 317 318 316 313 314 315 316 315 314 313 314 315 315 313 310 310 310 309 306 304 303 303 303 303 303 303 303 304 306 309 310 311 311 310 308 307 307 306 306 305 305 305 305 304 303 302 301 300 300
307 307 306 306 307 308 308 308 308 308 309 310 311 312 314 315 316 316 317 317 318 318 319 319 318 317 318 318 318 318 319 318 319 319 319 317 316 317 317 315 314 315 315 314 313 314 315 315 313 310 306 306 306 304 302 302 302 302 303 303 302 302 303 304 305 307 308 308 308 308 307 306 306 305 305 305 304 303 302 301 301 300 300 299 299
305 304 303 304 305 306 306 307 307 307 307 308 308 309 310 310 311 313 314 315 316 317 318 319 319 318 318 317 317 318 318 318 318 318 319 319 317 317 317 317 317 316 315 314 313 314 315 314 312 309 304 303 303 302 302 302 302 304 304 304 304 304 304 304 304 304 304 304 305 305 306 305 305 304 303 302 301 301 300 300 300 300 299 299 299
300 300 300 300 300 301 302 303 305 306 307 307 307 307 308 308 307 308 310 312 314 316 317 318 319 319 318 317 318 318 317 317 316 316 317 318 318 318 318 318 317 315 314 314 314 315 315 314 313 308 302 302 302 302 302 302 302 305 306 306 308 308 307 307 306 305 305 304 303 303 303 303 302 302 301 301 301 300 300 300 299 299 299 299 299
298 298 298 298 298 298 299 300 301 301 302 302 302 303 303 305 306 307 307 309 310 312 314 315 316 317 317 318 318 317 316 314 314 314 315 317 318 317 317 317 316 314 314 314 313 314 314 312 310 305 302 302 303 302 302 302 302 305 305 306 308 309 309 308 308 307 307 305 303 302 302 302 302 301 301 301 301 300 300 300 299 299 299 299 299
297 297 297 297 297 297 297 297 297 298 298 298 298 299 299 301 302 303 304 306 307 309 311 312 313 313 314 314 314 315 315 314 313 313 314 316 318 316 314 314 314 314 314 312 311 312 312 308 305 302 302 303 302 302 302 301 302 303 303 303 305 307 308 308 308 306 305 303 302 302 302 302 302 301 301 301 300 300 300 300 299 299 298 298 298
299 299 299 298 298 298 298 297 297 297 298 298 299 299 300 300 301 301 302 304 306 308 309 311 312 312 312 311 312 313 315 316 315 315 315 316 317 317 314 313 313 314 312 310 310 310 308 305 302 302 302 302 302 302 301 301 301 301 301 300 301 303 305 306 305 304 303 302 301 301 301 301 301 301 301 300 300 300 299 298 298 297 297 297 297
300 300 300 300 300 300 300 299 299 299 299 298 299 300 300 301 301 302 303 304 305 306 307 309 311 312 313 314 314 315 316 316 315 315 315 316 317 316 314 312 313 313 311 309 308 307 305 303 302 302 302 302 302 302 301 300 300 300 300 300 300 300 301 302 302 302 301 301 301 300 301 300 300 300 300 299 299 298 298 297 297 297 297 296 296
300 300 300 300 300 300 300 300 300 300 300 300 300 300 300 301 301 302 302 303 303 304 305 307 309 311 312 313 314 315 315 314 313 313 314 317 316 315 314 313 313 313 310 308 307 306 304 303 302 302 302 302 302 301 300 300 299 299 300 300 300 300 300 300 301 301 301 301 300 300 300 300 299 299 298 298 298 297 297 297 297 297 296 296 296
300 300 300 300 300 300 300 300 300 300 300 300 300 300 300 301 301 301 302 302 303 303 304 306 308 309 311 311 313 314 314 314 313 312 314 315 316 315 314 312 312 312 310 308 307 307 305 303 302 302 303 302 301 300 300 299 299 299 300 300 300 300 300 300 300 300 300 300 299 299 299 299 298 297 297 297 297 297 297 297 296 296 296 296 296
299 299 299 299 299 299 299 299 299 299 299 299 299 299 300 300 301 301 301 302 302 302 303 304 305 306 308 310 311 313 313 314 313 313 313 313 314 314 313 312 311 311 309 307 307 307 305 304 303 302 302 301 300 300 300 299 300 300 300 300 299 299 300 299 299 298 298 298 298 298 297 297 296 296 296 296 296 296 296 296 296 295 295 295 294
299 299 299 299 299 299 299 299 299 299 299 299 299 299 300 300 300 301 301 301 302 303 303 303 305 307 308 309 310 312 313 313 313 313 312 312 312 313 313 311 310 310 308 307 306 305 304 303 303 302 301 300 299 300 300 300 300 299 299 299 299 299 299 298 298 298 298 297 297 296 295 294 294 295 296 296 296 296 296 296 295 295 294 293 293
298 298 298 298 298 298 298 298 298 299 299 299 299 299 299 299 299 299 300 301 301 302 301 302 305 308 309 310 310 310 311 312 312 311 311 311 311 312 312 310 309 309 308 306 305 304 304 303 303 302 300 299 299 300 300 299 299 299 299 299 299 299 298 298 297 297 297 297 296 294 294 294 294 295 295 295 295 295 295 295 294 293 293 292 292
298 298 298 298 298 298 298 298 298 298 298 298 298 298 298 298 298 298 298 300 301 301 301 301 302 304 305 307 309 309 310 311 311 311 311 311 311 311 311 309 309 308 306 305 305 305 304 303 302 301 300 299 300 300 299 299 299 299 299 299 299 299 298 297 296 297 296 295 294 293 293 294 294 294 294 294 294 294 294 293 293 292 292 292 292
297 298 298 297 297 297 297 297 297 297 298 298 298 298 298 298 298 298 297 298 299 300 300 300 301 301 301 302 305 307 308 309 310 310 311 310 310 310 309 308 308 307 305 304 306 305 304 303 302 301 300 300 300 300 300 299 299 299 299 298 298 298 297 297 296 296 294 293 293 293 293 294 294 294 294 294 294 293 293 292 292 292 292 292 292
297 297 297 297 297 297 297 297 297 297 297 297 297 297 297 297 297 298 297 297 298 299 300 300 301 301 300 300 301 303 305 306 308 309 310 309 309 308 307 306 306 305 304 305 306 305 304 303 302 300 300 300 300 300 300 299 298 298 298 298 297 297 296 296 296 294 293 293 292 293 294 294 294 294 294 293 293 293 292 292 292 291 291 291 291
297 296 297 297 297 296 296 296 296 296 296 296 296 296 297 297 297 297 297 297 298 299 300 300 301 301 301 300 300 301 301 302 304 306 307 308 307 306 305 305 305 305 306 306 305 304 304 303 301 300 300 299 299 300 300 299 298 298 297 297 296 296 296 296 295 294 294 293 292 293 294 294 294 293 293 293 293 292 292 292 291 291 291 291 290
296 296 296 296 296 296 296 296 296 296 296 296 296 296 296 296 296 296 297 297 297 298 299 300 300 301 301 301 301 301 300 300 301 301 302 305 306 306 306 305 305 305 305 305 305 304 303 301 300 299 299 299 299 299 299 298 298 298 297 297 296 296 296 295 294 294 293 292 292 294 294 293 293 293 293 293 292 292 292 292 291 291 291 290 290
297 297 296 296 297 297 297 297 296 296 296 296 296 296 296 296 295 296 296 296 296 297 298 299 300 301 301 301 301 301 300 300 299 298 298 300 303 306 306 304 303 302 302 302 303 303 301 300 299 299 299 299 299 299 299 298 298 298 297 297 296 296 295 294 293 293 293 291 292 294 293 292 293 293 293 293 293 292 292 292 291 291 290 289 289
297 297 297 297 297 297 297 296 296 296 296 296 296 295 295 295 295 295 295 295 296 296 297 298 299 300 301 301 301 301 300 299 299 299 299 300 301 304 305 303 301 301 300 301 301 301 300 300 299 299 299 299 299 299 298 298 297 297 297 296 296 295 294 293 293 292 292 291 293 294 293 293 293 293 293 292 292 292 292 292 291 290 289 289 289
297 297 296 296 296 296 296 295 295 295 295 296 295 295 295 295 295 294 294 295 295 296 296 297 299 300 301 301 301 300 299 299 300 301 302 302 302 303 304 303 301 300 300 300 300 300 299 299 299 299 300 299 298 298 298 298 297 297 296 296 295 294 293 293 292 292 292 292 293 293 293 293 293 292 292 292 292 292 292 291 290 289 289 289 289
297 296 296 296 296 295 295 294 294 295 295 296 295 295 295 294 294 294 294 294 295 295 296 298 299 299 300 301 301 300 299 299 301 302 302 302 303 304 303 302 301 300 299 299 299 300 299 299 299 300 299 298 298 298 298 297 297 297 296 295 294 293 293 293 293 293 293 292 292 293 293 292 291 291 291 292 291 291 291 290 290 289 289 289 290
296 296 297 296 295 294 294 294 294 294 295 295 295 294 294 294 294 294 294 294 295 296 297 298 299 299 300 300 300 300 299 299 300 301 302 302 302 303 302 301 301 300 299 299 300 300 299 300 300 299 299 298 298 298 298 297 297 296 296 295 293 292 292 293 294 294 293 292 292 292 291 290 290 290 291 291 291 291 290 290 289 289 290 290 290
297 296 296 296 295 294 294 294 294 294 294 294 294 294 294 293 294 294 294 295 296 296 297 298 299 299 299 299 299 299 299 299 300 301 301 301 301 301 301 300 301 301 300 300 300 299 299 299 299 299 298 298 298 298 297 296 296 296 295 293 292 292 292 293 293 293 293 292 291 290 290 289 289 290 291 291 291 290 290 289 289 290 290 290 290
296 296 296 296 295 294 294 295 294 294 294 295 294 294 294 294 294 295 295 296 296 297 298 298 299 299 298 299 299 299 299 299 299 299 300 300 301 300 300 300 300 300 300 300 299 299 299 299 299 298 298 298 298 297 296 296 295 294 293 292 292 292 292 293 293 293 292 291 290 289 289 289 289 291 291 291 291 290 289 289 290 290 290 290 290
297 296 296 296 295 294 294 295 295 295 295 295 295 295 295 295 295 296 296 297 297 297 298 298 298 298 298 298 299 299 299 299 300 300 300 300 300 300 300 300 300 300 299 299 298 299 299 298 298 298 298 297 297 296 295 295 294 293 292 292 292 292 292 293 293 293 292 290 290 289 289 289 289 290 291 291 291 290 290 290 290 290 290 290 290
296 296 296 296 295 294 294 295 295 295 295 295 295 295 295 296 296 296 297 297 297 297 298 298 298 298 298 298 298 298 298 298 299 299 300 300 299 298 298 299 299 299 299 298 298 298 298 298 297 297 297 296 296 295 294 294 293 292 292 291 291 291 292 293 292 292 291 290 289 289 289 288 289 290 290 290 290 290 290 290 290 291 291 290 290
296 296 296 295 294 294 295 295 295 295 296 295 295 295 295 296 297 297 297 297 297 297 297 297 297 297 297 297 296 296 296 297 297 297 298 298 298 297 297 298 298 298 298 298 298 298 297 297 296 296 296 295 294 294 293 293 292 291 291 291 292 292 292 291 290 290 289 289 289 289 288 288 288 289 290 290 290 290 290 290 291 291 290 290 290
296 297 296 295 294 295 296 296 296 296 296 296 296 296 296 296 297 297 296 297 297 296 296 296 297 297 297 296 296 296 296 295 296 296 296 296 297 297 297 297 297 297 297 297 296 296 296 296 296 296 295 295 294 293 293 293 292 292 292 292 291 291 290 289 288 288 288 288 288 288 288 288 288 289 290 290 290 290 290 291 291 290 290 290 290
296 296 295 294 294 295 296 296 296 296 296 296 296 296 296 297 297 297 296 296 296 296 296 296 297 297 297 296 296 296 295 295 295 295 295 296 296 296 296 297 297 296 296 295 295 295 295 295 295 295 295 294 293 293 292 292 292 291 290 290 289 288 288 288 287 287 287 288 288 288 287 287 288 289 290 290 290 290 290 290 290 290 290 291 291
296 295 294 294 294 295 295 296 296 295 295 296 296 296 297 296 296 296 296 296 296 296 295 295 296 296 296 295 295 295 295 295 295 295 295 295 295 296 296 295 295 295 295 294 294 294 294 294 294 294 294 293 292 292 291 291 291 290 289 288 288 288 287 287 287 287 287 287 287 287 287 287 288 288 289 290 290 290 290 290 290 290 290 291 292
296 295 294 294 294 294 294 295 295 294 294 295 296 296 296 296 296 296 296 295 295 294 294 294 295 295 295 295 295 295 295 295 295 295 295 295 295 295 295 294 294 294 294 293 293 293 294 293 293 293 293 292 291 291 291 291 290 289 288 288 288 287 287 287 287 287 287 287 287 287 288 288 288 288 288 289 290 290 290 290 290 290 291 291 292
296 295 294 294 294 294 294 293 293 293 293 294 295 296 296 296 296 296 295 295 294 294 294 294 294 294 294 294 295 295 295 295 295 294 294 294 294 294 294 293 293 293 293 293 293 293 293 293 292 292 292 292 291 291 290 290 289 288 288 288 288 288 287 287 287 287 287 288 288 289 289 289 289 288 288 289 289 290 290 290 290 290 291 291 291
296 295 295 294 294 294 294 293 293 293 293 293 294 295 295 296 295 295 295 294 294 294 294 294 294 294 294 294 294 294 294 294 294 294 293 293 293 292 292 292 292 292 293 293 293 292 292 292 292 292 292 292 291 290 289 288 288 288 289 289 289 289 289 289 289 289 290 290 291 291 291 290 290 290 289 289 289 290 291 291 290 290 291 291 291
296 296 295 295 295 295 295 294 293 292 292 292 293 294 294 295 295 294 294 293 293 293 293 293 294 294 294 294 294 294 294 294 294 293 293 292 292 291 291 291 292 292 292 292 292 291 291 291 291 291 291 291 290 288 287 287 288 289 290 290 290 290 291 291 291 291 292 292 292 291 291 291 291 291 290 289 289 290 290 290 290 291 291 291 290
Wind_Speed
9 8 7 6 7 8 8 9 9 8 6 6 7 5 3 2 3 5 8 8 7 7 6 6 5 5 5 6 7 8 9 9 10 10 11 11 11 11 12 12 13 14 14 13 12 10 12 15 16 13 9 10 12 9 7 8 7 4 5 4 2 5 6 2 1 1 0 1 4 1 2 5 4 2 5 9 14 13 8 10 15 15 14 17 19
8 7 6 6 7 9 10 10 9 8 8 9 8 6 3 3 5 7 9 10 10 8 6 6 5 4 5 5 6 7 8 10 11 11 12 13 14 14 12 12 14 15 14 13 12 10 10 12 12 11 10 11 9 5 4 5 3 3 5 3 2 3 4 0 2 2 2 2 1 2 1 5 2 4 6 8 13 14 7 6 9 10 12 16 18
4 3 5 6 8 11 11 11 10 9 10 10 9 6 5 4 6 8 9 10 10 8 7 7 7 6 6 5 6 7 9 10 11 11 13 15 16 15 12 12 14 15 13 11 11 11 10 9 9 8 8 10 9 8 7 5 1 3 8 7 4 3 2 3 4 3 3 2 4 2 4 4 3 1 6 10 11 13 9 5 7 9 9 11 15
5 4 7 8 8 11 13 12 11 11 10 11 10 8 6 6 8 9 9 9 10 8 8 8 8 7 7 6 7 8 9 10 11 11 12 15 16 16 13 13 14 13 11 8 7 8 8 7 6 6 6 8 8 8 8 7 3 3 4 4 2 4 3 4 3 2 2 1 2 2 5 6 4 2 6 8 7 8 8 7 7 9 7 6 10
8 7 8 9 8 11 12 12 12 11 9 9 10 8 7 8 9 9 8 8 10 10 10 10 10 10 9 8 8 8 10 12 11 10 12 13 15 15 13 12 12 11 10 7 4 5 5 4 3 4 5 7 8 5 4 7 4 3 1 1 4 4 3 4 4 1 2 1 1 2 5 6 4 3 5 5 6 7 6 4 4 5 6 6 9
8 8 9 9 9 10 11 12 12 12 11 11 10 9 9 9 9 8 8 9 10 11 10 10 11 11 11 10 10 10 11 13 13 14 14 14 14 14 12 12 13 12 11 9 6 5 4 4 3 3 3 4 6 5 4 7 6 4 5 4 2 2 3 3 4 3 3 1 1 3 4 6 6 4 4 5 8 7 4 5 7 10 11 12 15
7 8 9 9 9 9 11 12 13 14 14 13 11 9 10 11 10 9 8 9 11 11 11 11 11 11 11 11 11 11 12 12 14 16 16 16 16 14 13 12 12 11 9 8 7 6 5 6 5 4 4 4 5 6 7 8 8 8 9 10 4 1 2 4 4 3 4 3 4 5 5 6 7 8 7 7 7 6 8 11 12 13 15 18 19
9 8 8 8 8 8 9 10 11 11 12 13 11 10 11 12 12 12 11 11 11 11 11 11 11 11 11 10 11 11 11 12 14 15 15 16 15 14 13 12 11 11 10 10 9 8 8 9 10 9 9 8 7 8 8 8 8 9 10 12 10 5 4 6 6 6 5 6 7 7 8 8 8 10 9 7 8 9 11 14 16 18 20 20 19
11 8 7 7 6 7 8 7 8 10 11 11 11 10 10 9 10 12 13 12 12 12 11 11 11 12 12 12 12 13 13 14 14 14 14 14 15 15 15 14 14 14 15 14 14 13 13 13 13 11 12 12 10 10 10 9 9 10 10 11 12 11 10 10 9 8 7 8 9 10 11 10 9 9 9 9 11 13 15 17 19 20 20 21 22
9 7 6 6 5 6 7 6 7 8 9 9 9 9 9 9 10 12 13 13 13 13 13 13 12 13 13 13 14 15 17 17 17 17 17 16 17 18 18 17 18 17 17 16 15 16 16 15 14 14 14 13 13 13 12 13 13 13 13 13 12 12 12 13 12 11 10 10 11 11 11 9 8 10 11 12 13 14 16 18 18 19 19 21 25
7 6 5 3 2 3 4 5 6 7 7 8 8 9 9 10 12 13 14 15 15 15 14 14 15 15 15 15 16 17 19 20 20 21 20 20 20 21 20 19 20 20 19 19 18 17 17 16 16 16 15 14 15 15 14 15 16 16 16 16 16 16 15 15 15 14 13 12 12 14 13 12 10 10 12 15 16 15 16 17 16 17 20 22 24
7 8 6 5 4 3 3 3 5 6 5 6 7 9 10 11 13 14 14 16 17 17 16 16 17 18 17 18 19 20 22 24 25 25 23 23 23 23 20 20 21 23 22 20 18 16 16 17 16 16 16 15 14 15 15 17 17 17 17 18 18 18 18 18 18 18 18 16 15 15 15 15 15 12 11 14 16 16 17 17 18 21 23 24 24
10 10 8 8 7 6 5 3 3 3 3 4 6 8 9 11 12 13 14 15 17 18 19 18 18 19 20 21 22 22 25 26 28 28 26 25 26 23 21 20 22 23 22 21 19 17 19 20 19 18 18 15 13 14 16 16 16 17 17 18 18 18 18 18 19 20 21 20 19 18 17 17 19 18 16 15 15 17 18 20 22 24 25 25 27
10 10 10 10 10 9 8 6 4 2 2 3 4 6 7 8 9 11 13 14 16 19 21 20 19 20 23 25 26 27 27 26 27 29 29 28 27 25 23 23 23 23 24 24 22 21 23 23 21 20 18 15 14 15 17 16 17 17 16 15 16 17 17 18 19 19 20 21 21 20 20 21 21 21 21 20 21 22 23 24 25 26 27 28 29
10 10 11 11 11 11 10 8 7 4 2 0 2 4 6 7 9 11 12 13 14 16 19 21 22 23 26 27 28 30 30 27 26 29 31 30 29 27 26 27 26 25 26 27 25 24 24 24 23 23 21 19 18 18 18 18 18 16 13 12 13 14 14 15 16 17 18 19 20 21 23 24 24 23 22 23 24 24 25 25 26 27 28 30 30
10 10 9 9 11 11 9 8 7 5 3 3 2 4 5 6 9 10 11 12 13 15 17 19 22 24 25 27 29 30 31 30 28 28 28 29 29 28 29 31 30 28 28 28 26 24 24 25 26 25 22 21 21 19 17 17 17 14 12 12 12 12 12 12 13 13 14 16 16 17 19 21 22 22 22 22 23 24 25 25 26 28 29 29 28
6 6 5 5 7 8 8 8 7 5 3 1 2 3 5 6 7 9 11 12 13 15 17 18 20 22 24 27 28 28 30 31 30 27 27 28 29 30 31 32 32 30 29 28 26 24 26 27 26 24 22 23 22 19 16 16 14 13 13 13 13 12 11 12 12 11 12 13 13 14 16 18 20 20 21 22 23 24 26 26 26 26 25 24 24
4 7 9 9 9 9 9 9 10 10 9 7 7 8 9 9 7 7 10 13 15 16 17 19 21 22 23 25 27 27 28 29 28 27 27 27 29 31 31 31 33 34 33 31 29 28 27 25 24 23 22 22 21 17 15 14 13 14 14 13 11 11 10 11 12 12 12 13 14 15 16 17 18 19 21 22 23 24 23 22 22 22 21 21 22
10 12 13 13 13 13 13 12 12 13 14 15 15 15 14 14 12 10 10 12 14 16 17 19 22 23 22 23 25 26 26 27 26 26 27 27 28 30 32 33 35 34 32 31 31 29 27 25 26 24 20 19 18 16 15 14 14 15 13 9 8 9 9 9 10 11 12 13 14 15 16 18 18 19 20 20 20 19 18 18 19 20 20 21 21
13 15 16 17 16 15 14 13 12 13 16 18 20 20 20 20 19 18 16 14 15 16 17 19 22 23 22 23 24 24 25 26 26 25 27 28 28 29 32 34 32 30 30 32 34 32 29 29 29 24 18 17 17 17 16 15 15 15 11 8 8 10 11 11 11 12 13 14 15 16 16 16 16 16 15 15 14 13 14 15 16 16 17 18 17
15 16 17 18 18 17 17 17 17 19 20 22 24 24 24 23 23 22 22 20 19 18 19 21 22 23 23 25 25 24 23 24 25 25 26 28 28 27 30 32 29 27 27 28 30 32 30 29 27 22 19 18 18 17 16 15 16 14 11 10 11 13 14 14 13 14 15 15 14 11 9 9 10 10 12 13 12 12 12 12 11 12 14 18 19
15 16 17 19 20 20 21 21 22 23 23 23 24 25 25 24 24 24 25 25 24 23 22 23 24 25 26 27 27 26 24 22 22 23 24 26 26 25 27 29 28 27 25 21 22 27 29 27 25 22 19 19 18 17 15 15 15 15 12 11 13 14 15 15 14 14 15 12 9 7 7 7 7 8 9 10 11 12 13 13 13 14 17 20 22
11 13 15 16 17 18 20 22 23 23 22 22 22 23 23 23 24 25 25 25 26 25 24 24 25 26 27 26 25 26 24 21 21 22 23 24 24 23 24 27 27 25 24 23 21 25 26 24 23 21 19 18 17 15 14 14 14 14 12 12 13 14 16 16 15 14 12 9 8 8 7 7 7 8 9 11 15 17 17 17 16 15 18 20 20
9 10 12 13 14 15 17 18 19 20 21 21 21 22 22 22 23 24 24 24 25 26 26 25 25 25 25 23 22 24 25 23 22 23 23 23 23 21 22 29 28 22 23 25 19 16 18 20 20 18 17 16 15 13 13 13 11 11 11 11 12 13 14 14 11 9 9 7 6 5 5 6 8 10 13 16 19 20 17 15 13 11 13 16 19
10 12 12 13 14 15 15 16 16 16 17 18 20 21 21 21 21 22 23 23 24 26 26 26 26 26 27 27 25 26 27 27 24 22 21 22 21 19 21 30 32 26 25 25 18 12 14 17 17 16 15 14 13 12 11 10 9 9 9 9 10 10 10 9 9 8 8 6 5 6 7 9 10 12 14 17 17 15 12 12 13 13 15 20 24
13 14 14 15 15 16 16 16 16 16 16 18 19 19 19 20 20 20 21 22 23 25 26 27 27 26 27 29 29 29 30 30 27 23 20 20 21 20 21 28 34 32 27 25 20 16 15 14 14 14 13 12 12 11 9 8 7 7 7 7 8 8 9 9 9 9 8 7 8 9 10 11 12 14 15 14 13 11 11 15 18 19 20 22 24
15 15 16 16 17 16 16 17 17 17 18 18 19 18 18 18 19 20 20 20 22 23 24 25 27 28 29 29 28 26 27 28 26 22 20 20 22 22 22 28 36 36 31 28 24 20 18 15 13 13 12 11 11 9 8 7 6 6 6 7 8 8 8 8 8 8 8 9 9 10 10 12 12 12 11 10 9 10 12 16 18 19 19 20 20
15 16 17 17 17 16 16 16 16 16 16 17 17 17 18 18 19 19 18 18 20 22 21 19 20 23 28 29 27 24 23 23 22 20 19 20 23 25 26 32 38 39 34 31 27 24 22 19 17 16 14 11 10 9 8 8 7 6 6 7 8 7 6 6 5 5 6 7 8 9 11 11 11 9 9 9 10 12 16 18 19 19 18 17 17
16 16 16 16 15 15 15 15 15 16 16 16 17 18 18 19 21 22 22 22 22 23 25 23 17 15 19 24 25 24 22 21 22 21 19 19 22 27 31 37 40 39 36 32 29 27 25 23 21 19 16 14 13 12 11 11 10 8 8 8 7 5 4 2 3 4 6 8 9 10 10 10 10 9 10 11 13 16 18 18 17 16 15 15 15
17 16 15 14 13 14 14 15 15 16 17 17 18 18 19 19 20 23 25 26 26 25 27 28 23 19 20 21 22 22 22 21 23 23 20 19 23 29 34 38 40 39 35 31 29 27 26 24 23 20 18 17 17 15 13 12 10 9 10 11 9 7 6 5 5 6 8 8 8 8 9 10 9 8 9 12 15 16 15 13 13 14 14 15 16
17 16 14 14 14 14 15 16 17 17 18 18 19 20 21 20 19 21 24 24 24 24 25 27 28 27 26 23 20 19 18 19 23 25 22 21 26 34 38 39 38 36 33 31 30 28 25 24 23 21 19 18 16 14 13 12 10 8 9 9 10 9 8 7 7 7 7 6 7 7 7 7 7 8 11 15 16 15 13 13 13 14 14 15 16
17 16 15 15 15 15 16 17 17 18 18 18 19 19 20 21 21 21 21 20 18 17 19 22 25 28 30 28 25 22 19 16 20 25 26 25 29 37 41 40 37 33 32 32 32 29 26 25 23 21 20 17 15 15 15 12 10 8 6 5 7 8 7 5 6 6 5 5 6 5 4 5 8 10 13 15 14 13 13 14 14 14 14 14 15
16 16 16 16 15 16 17 17 17 18 18 19 20 20 20 22 24 24 23 21 16 13 13 17 20 24 28 29 29 28 24 19 18 20 23 27 33 37 38 38 36 33 33 36 34 30 26 24 22 20 18 16 16 18 18 15 13 11 8 6 7 8 6 5 5 5 5 6 6 3 3 7 9 11 12 13 12 12 13 14 14 14 14 14 15
18 18 17 17 18 20 20 19 19 20 21 23 24 24 22 22 24 23 22 21 19 16 13 14 18 21 24 26 27 28 27 26 25 23 18 19 28 33 32 32 33 34 36 36 34 29 25 22 20 19 18 17 18 20 19 16 15 15 13 10 9 8 6 4 3 4 5 7 5 2 4 7 9 10 11 11 11 12 13 13 13 13 14 15 17
20 18 17 18 20 21 22 23 23 24 25 26 27 26 24 21 21 22 21 20 21 20 16 15 18 20 23 25 26 26 26 26 28 27 22 18 20 25 28 31 32 32 32 31 28 25 23 21 19 19 18 19 20 20 17 15 14 13 12 12 10 9 8 6 5 5 5 5 2 2 5 8 8 9 11 11 11 13 13 13 13 14 14 15 16
18 17 17 17 19 21 23 24 24 24 25 25 25 26 25 22 21 22 21 18 19 20 19 19 21 20 20 22 23 23 21 20 20 22 22 21 20 22 26 31 31 27 25 25 24 22 21 20 19 18 19 20 19 17 16 14 12 10 10 11 11 10 9 7 5 5 5 3 0 2 6 8 8 10 11 9 9 11 13 13 14 13 13 13 14
16 16 17 17 20 23 23 21 20 20 19 20 21 22 23 22 21 20 20 18 18 19 19 18 20 20 18 18 18 19 18 17 17 17 17 18 19 19 24 30 30 26 24 25 25 23 22 21 19 17 18 17 16 16 15 13 11 10 10 11 10 9 8 6 4 4 4 1 1 2 6 7 8 10 10 9 10 12 13 13 13 12 14 15 16
15 15 16 18 21 21 19 19 18 16 14 15 16 17 18 19 18 17 17 17 17 16 16 17 20 20 19 16 16 19 19 19 19 18 17 18 19 19 22 26 28 28 27 27 24 22 20 18 17 17 16 14 13 13 11 10 11 13 12 11 10 8 5 2 2 3 3 2 2 3 5 7 10 11 11 11 13 13 12 12 12 14 16 17 18
14 16 16 18 19 18 17 19 19 16 12 11 11 12 14 14 14 14 14 14 14 14 16 17 16 17 17 14 14 19 21 21 21 20 19 20 21 21 22 25 29 31 30 25 21 18 16 15 16 17 14 12 12 12 11 12 12 12 9 7 6 4 1 2 1 1 3 3 3 4 5 8 11 11 10 11 12 11 11 12 13 15 16 18 18
15 17 17 18 17 15 16 18 17 14 12 11 10 10 11 12 12 13 13 13 14 16 17 15 12 14 12 9 9 16 21 22 23 22 22 23 23 22 22 24 27 29 27 22 20 19 18 17 17 16 13 13 15 14 13 13 13 10 7 7 6 4 4 4 5 5 5 5 5 5 6 9 10 10 10 11 12 11 10 11 12 14 16 17 18
15 16 17 17 17 16 17 18 17 15 14 13 12 11 11 12 13 11 10 12 14 14 11 9 8 7 3 3 4 12 17 20 21 23 25 26 25 23 22 23 24 25 24 22 21 20 20 18 16 14 13 15 17 16 13 13 11 8 7 8 8 7 5 5 7 8 7 6 5 5 7 9 10 10 9 10 12 11 9 11 14 15 16 17 18
16 16 15 16 16 16 16 16 16 15 14 13 12 12 12 12 11 10 11 14 13 7 3 5 3 5 8 8 8 10 13 14 17 19 22 25 26 25 25 24 22 20 21 22 21 20 21 19 17 15 14 14 14 13 12 12 11 8 9 11 11 10 9 7 8 7 5 5 6 6 7 9 10 8 6 9 11 9 10 13 15 15 17 18 19
18 16 13 14 15 14 14 14 15 15 14 12 10 11 12 11 10 11 13 11 5 2 3 3 3 6 8 11 11 10 9 10 12 14 17 22 24 23 22 20 18 18 19 19 19 20 20 19 17 17 18 16 13 11 12 13 13 12 13 14 13 12 11 10 9 7 5 6 7 6 7 8 9 7 6 9 9 9 12 14 15 16 18 19 17
19 17 14 12 12 12 13 15 16 15 14 13 11 10 11 12 12 10 7 4 3 3 2 3 6 9 11 14 13 9 6 6 8 11 14 17 18 19 18 18 20 22 22 21 20 20 20 19 18 20 20 18 15 14 16 18 17 15 14 12 10 9 8 8 8 7 6 7 6 6 6 8 8 8 7 7 8 11 14 15 15 16 17 17 16
17 16 12 10 10 10 12 14 15 15 14 13 12 11 10 11 9 8 9 7 6 6 5 5 7 8 10 11 9 7 7 9 11 13 15 17 18 20 21 22 24 24 22 20 18 19 20 20 20 21 21 19 18 18 18 16 14 12 11 9 6 5 6 7 7 6 6 6 5 5 6 7 8 8 7 6 9 13 14 14 14 15 15 15 17
17 16 11 7 7 9 10 11 12 14 13 12 11 11 11 10 9 10 9 7 5 3 4 4 4 5 8 10 10 10 13 16 19 21 21 22 22 24 24 24 22 22 21 19 17 16 18 19 20 19 18 18 19 17 14 11 9 8 8 7 5 5 5 5 5 4 5 4 4 5 5 6 7 8 7 8 10 12 12 12 14 14 14 16 18
15 14 10 6 6 7 9 9 9 9 10 9 10 12 12 12 10 9 8 6 5 3 4 6 6 7 10 15 17 18 20 22 23 22 21 20 20 20 20 19 17 17 17 17 15 14 15 17 18 16 14 14 15 14 12 11 10 7 5 5 4 3 3 3 2 3 3 2 3 4 5 6 7 7 6 9 11 11 11 13 16 17 16 17 18
13 13 9 6 4 4 6 8 8 7 6 6 6 8 10 10 10 9 9 10 10 9 8 9 9 11 15 19 21 21 22 23 22 20 19 18 17 18 20 21 20 18 17 16 15 14 14 14 13 12 10 11 14 15 12 9 7 5 4 3 2 1 1 1 1 1 1 2 3 4 6 7 7 7 7 10 11 11 11 14 17 17 17 17 17
13 13 11 9 7 4 4 5 8 9 8 5 3 6 7 9 11 11 10 10 10 8 6 7 10 14 18 20 20 21 20 19 17 16 16 17 17 18 20 22 21 20 18 17 17 16 13 12 12 13 12 11 13 14 11 6 4 4 4 3 3 4 4 4 4 5 5 5 6 8 9 10 10 10 10 11 10 9 11 14 16 16 16 16 16
11 12 12 13 13 10 7 4 4 8 10 7 3 5 7 9 11 11 9 7 6 5 5 6 10 14 16 17 17 18 17 16 16 15 15 16 18 18 17 18 19 19 18 17 16 15 12 11 13 15 14 12 11 11 9 6 5 5 5 5 5 6 7 7 7 7 7 7 8 10 10 11 12 13 13 13 10 8 9 13 14 14 14 15 15
8 10 11 12 13 13 12 8 5 7 10 10 7 4 6 9 10 10 8 6 6 6 7 10 13 15 15 15 16 16 16 15 14 13 13 14 16 15 14 15 16 16 15 14 12 10 7 7 9 12 13 12 10 9 6 5 5 5 5 5 5 6 7 7 7 7 7 7 8 9 9 10 11 13 15 15 13 9 8 12 14 14 14 15 14
Wind_Direction
200 199 195 195 193 194 202 209 210 206 198 197 190 174 176 231 240 225 220 212 191 179 176 169 164 160 155 157 162 162 159 154 144 139 138 138 136 132 128 130 133 132 126 120 117 120 127 125 119 114 115 119 112 109 135 132 112 96 69 56 97 96 76 41 307 162 299 56 116 168 4 78 99 307 322 355 16 24 7 349 1 4 353 350 353
226 222 206 199 187 181 191 201 202 200 197 194 190 190 204 228 230 217 209 203 188 177 179 174 157 144 145 156 162 162 158 147 141 146 151 147 137 128 129 142 144 138 132 131 132 131 133 140 138 134 136 131 122 119 129 122 92 75 91 91 107 100 88 62 255 220 163 68 61 205 102 72 102 274 310 352 14 20 14 337 347 350 338 339 346
234 221 185 178 172 173 182 191 193 196 200 199 199 205 216 221 220 210 202 195 178 168 179 168 145 149 163 158 154 154 154 151 157 167 164 155 145 137 147 164 155 145 144 147 151 146 147 158 159 153 148 140 138 143 146 155 172 112 132 148 165 180 169 143 139 155 168 41 26 173 215 339 23 278 319 335 353 8 16 349 338 352 347 333 336
181 168 171 176 178 181 185 184 188 200 206 206 209 215 218 212 205 194 185 176 161 167 188 173 158 172 176 164 163 164 166 168 171 176 173 166 160 157 167 176 167 154 145 148 163 164 168 177 173 173 167 161 164 169 175 181 155 91 154 180 254 252 214 161 140 33 342 329 35 167 244 319 5 39 341 338 342 352 355 351 355 5 360 325 332
169 169 179 188 193 192 188 180 183 199 203 200 210 223 224 208 191 177 170 170 169 182 196 184 176 182 177 174 179 180 185 180 169 171 176 174 174 176 177 175 167 154 144 152 183 186 181 177 184 200 189 188 194 190 194 191 152 80 168 225 307 268 199 178 193 298 341 217 225 288 282 301 304 316 340 340 340 337 331 340 336 298 290 294 320
164 171 177 186 197 192 183 176 182 195 195 195 207 220 224 210 191 177 176 186 192 195 196 192 190 193 191 188 188 194 203 192 178 180 182 181 186 189 187 180 170 161 160 166 175 181 173 158 178 224 204 196 194 172 193 207 176 142 170 189 270 263 212 202 205 254 302 276 285 298 290 289 284 288 291 298 328 339 297 281 275 267 279 293 304
164 177 178 180 186 182 177 182 193 199 198 200 205 208 214 211 200 194 196 203 209 205 196 195 199 202 205 204 202 213 223 210 200 201 196 193 196 193 193 192 180 172 174 174 177 190 188 172 181 210 213 213 210 195 205 218 201 185 196 209 216 216 229 221 209 248 286 283 269 269 279 284 280 285 284 282 305 313 280 276 278 283 292 296 304
159 171 180 177 178 182 186 192 201 204 200 199 201 204 215 219 208 201 204 214 220 214 202 202 207 205 209 217 215 218 226 220 218 220 212 207 205 196 193 192 181 176 178 180 187 194 198 198 195 201 209 213 222 225 227 232 226 218 218 222 225 230 237 231 227 238 254 264 267 267 269 269 272 283 281 262 264 277 281 281 283 293 297 295 308
157 152 168 175 177 185 190 194 196 197 196 200 208 210 210 215 209 201 204 213 221 221 213 211 216 212 210 218 221 219 220 218 221 222 217 213 208 202 200 192 185 189 190 192 197 196 202 212 208 207 217 219 223 234 241 247 246 243 241 237 237 240 242 244 245 241 244 262 277 281 276 268 267 273 264 254 263 272 281 285 287 291 293 292 304
150 139 149 165 173 182 189 195 191 192 199 207 218 217 202 199 206 207 210 218 225 228 222 218 225 228 221 221 223 224 223 220 219 219 215 212 210 212 213 204 199 204 205 206 212 208 210 219 219 217 224 229 233 238 242 247 252 254 254 253 253 254 253 254 253 247 248 259 267 276 282 277 270 270 268 270 277 278 280 284 284 284 287 292 301
127 114 109 111 129 170 188 201 199 204 216 217 221 227 220 214 216 214 215 220 224 228 229 227 230 231 228 227 229 230 229 225 221 220 218 215 215 220 223 218 215 220 226 230 231 224 220 224 227 231 233 233 239 244 244 246 249 251 253 255 257 257 258 259 259 260 265 267 260 262 274 278 271 268 267 265 268 271 274 276 278 285 294 298 301
103 96 93 99 107 117 130 168 186 197 217 225 229 235 230 226 231 230 227 228 227 226 230 236 237 235 233 233 233 234 235 233 229 227 225 221 223 229 235 236 233 233 239 242 234 226 229 233 236 243 244 237 234 237 241 247 252 252 251 253 254 254 255 255 256 260 266 269 264 260 262 265 262 258 255 254 258 264 266 269 277 288 296 300 300
87 86 85 89 93 89 87 104 137 159 183 201 217 232 233 232 240 245 243 243 241 236 235 236 237 239 240 239 237 237 238 237 235 235 233 228 230 240 247 247 242 237 237 233 227 234 246 247 247 248 242 232 224 224 229 239 249 252 251 251 252 252 253 253 254 256 260 262 262 259 256 257 259 260 260 261 264 267 269 274 283 292 297 298 300
77 74 70 70 73 71 69 70 78 112 157 176 195 229 246 249 254 259 256 254 251 249 250 246 239 238 240 240 238 238 239 237 234 237 238 236 237 242 247 246 241 236 231 228 232 247 253 249 246 242 234 229 227 224 225 231 239 244 248 249 248 248 249 251 252 253 254 255 256 255 254 255 260 263 266 270 273 277 281 285 290 295 298 299 301
63 54 50 50 51 52 53 53 56 64 63 109 239 263 276 277 275 273 270 266 261 257 256 252 246 244 244 245 245 247 248 245 239 239 241 241 240 240 241 241 237 231 230 232 237 245 249 246 243 242 241 242 239 231 229 235 238 240 245 247 246 247 251 254 255 256 257 257 256 254 254 256 261 266 269 272 276 280 285 290 294 297 299 300 302
58 46 39 40 38 34 33 34 37 41 50 50 5 315 294 280 276 275 276 275 270 265 261 255 252 251 251 253 255 256 255 252 249 246 244 242 242 242 240 236 233 230 230 234 236 239 245 248 248 248 245 238 233 231 228 231 235 238 244 246 246 252 258 260 259 258 257 258 258 257 257 259 263 267 271 275 280 284 288 292 296 298 299 301 302
57 27 0 6 13 7 4 4 355 340 340 8 323 275 249 249 267 276 275 270 264 264 268 267 263 259 257 259 260 259 258 257 256 256 252 247 244 244 240 234 233 233 233 237 241 243 247 247 244 241 232 221 223 225 217 217 228 237 240 242 245 252 260 264 266 265 264 262 260 259 259 261 265 270 275 281 286 290 294 297 299 300 302 305 307
340 329 326 328 328 325 326 329 322 310 301 291 278 261 246 244 253 267 276 275 268 266 269 271 272 269 265 264 265 263 262 263 263 262 258 252 245 242 240 240 241 241 242 245 248 247 245 237 227 224 220 216 218 217 208 209 221 230 236 242 246 249 255 264 267 267 268 267 264 263 263 265 271 276 281 287 292 295 299 302 303 305 307 311 314
317 316 317 316 315 313 310 309 309 303 295 287 282 276 272 269 264 262 270 277 279 277 272 271 273 273 270 270 271 268 265 267 267 262 257 255 251 247 246 248 249 249 249 248 243 237 230 216 209 213 213 207 207 207 206 209 213 221 231 239 242 243 245 251 255 257 264 270 271 271 271 273 277 281 285 292 297 301 306 311 312 312 312 314 316
302 302 302 302 302 301 295 286 281 279 278 281 282 282 282 281 278 275 272 270 273 276 273 268 268 271 273 273 271 266 263 265 268 266 261 259 257 252 248 250 252 253 250 241 229 220 210 201 201 206 204 199 202 204 204 204 206 213 219 216 220 231 235 240 246 252 259 268 273 276 278 280 285 290 297 307 310 308 309 309 310 311 310 309 307
290 291 293 294 293 290 285 278 272 270 271 275 279 282 283 283 281 279 277 273 271 271 270 269 267 267 269 270 270 270 267 264 266 267 265 263 258 250 246 248 250 245 237 227 217 211 207 203 202 200 197 200 202 200 199 198 201 210 215 212 215 226 236 242 246 250 259 270 280 287 290 293 301 311 319 324 320 311 305 302 299 296 293 293 291
285 284 281 280 279 279 279 278 278 279 280 280 281 282 281 281 279 278 277 276 275 272 269 270 270 269 267 267 271 275 271 262 260 264 266 263 259 252 244 239 238 232 221 210 212 216 212 207 204 199 196 200 199 194 195 195 198 207 215 218 222 231 241 247 250 258 267 274 275 270 268 278 290 298 301 298 290 286 291 295 296 295 291 288 285
300 293 287 285 283 279 277 275 274 275 276 276 277 278 278 279 279 279 278 277 276 273 271 271 273 274 273 272 271 271 267 259 258 264 266 258 253 253 243 230 227 226 211 196 205 217 212 203 200 197 195 196 194 190 190 191 197 206 213 218 224 232 241 248 256 262 263 257 253 261 271 277 273 266 262 261 264 271 280 287 292 298 299 293 287
316 308 305 305 301 295 292 290 287 283 278 274 272 272 274 275 276 277 276 273 272 271 270 271 271 272 274 273 268 264 263 262 261 262 260 251 247 249 238 223 220 219 203 192 197 210 207 202 199 194 191 193 190 187 187 189 194 201 207 217 222 228 237 244 247 250 249 255 270 277 272 264 258 258 260 265 273 283 291 293 293 298 300 296 289
313 308 309 308 304 303 303 302 300 297 292 285 277 272 272 273 274 275 275 274 274 273 270 269 268 267 269 268 263 260 261 262 263 260 255 247 242 240 230 220 218 218 207 197 194 195 196 198 196 191 191 193 189 186 185 186 191 198 206 215 219 222 227 222 216 223 234 246 256 250 246 251 257 264 270 276 284 294 299 292 285 281 282 283 283
311 308 308 305 301 302 303 301 299 296 294 294 290 285 278 273 272 275 276 275 274 273 272 270 268 267 267 267 265 262 258 257 260 258 250 243 237 233 228 219 218 219 208 193 189 190 189 190 194 194 195 196 193 190 188 186 193 200 204 209 214 214 215 215 222 234 237 233 235 240 246 253 262 271 280 285 290 292 288 283 282 281 280 281 284
309 309 307 304 302 302 300 297 295 296 299 301 301 300 295 285 276 275 278 280 280 276 273 273 272 269 268 269 268 259 248 248 253 251 246 241 233 226 224 217 214 212 203 188 184 189 190 193 203 206 203 200 197 196 195 195 200 204 203 208 215 217 221 231 242 248 244 238 240 248 261 273 281 287 290 294 299 294 283 279 282 287 290 290 292
311 311 309 307 305 303 301 299 297 300 303 302 299 299 298 294 286 278 273 277 284 283 276 277 282 276 267 264 261 253 244 243 246 249 254 251 237 225 220 213 207 205 199 188 182 185 191 198 205 205 203 203 201 204 207 204 202 200 198 206 218 226 234 242 242 238 241 251 263 277 287 292 295 292 285 280 275 267 266 272 282 293 300 304 307
310 311 310 309 307 304 305 305 304 303 300 297 296 294 291 290 288 281 268 258 264 276 278 277 285 292 279 267 260 258 254 246 246 254 266 263 245 228 217 209 205 203 197 188 183 185 191 196 199 200 201 201 202 205 204 199 196 190 186 196 210 221 224 198 177 210 246 271 287 296 301 304 307 305 295 285 275 271 274 283 295 305 314 317 315
314 312 310 309 306 303 304 303 302 302 300 297 297 295 291 290 290 289 281 264 253 262 274 273 272 282 289 284 276 268 259 248 245 252 257 252 238 223 210 205 205 202 193 187 189 192 194 196 198 200 201 201 201 199 192 190 194 190 184 190 198 205 209 202 206 238 265 283 297 305 311 317 320 315 301 291 291 294 300 308 315 320 321 316 310
314 311 308 306 303 301 303 303 301 301 300 299 298 296 296 294 291 293 295 284 264 260 269 272 272 276 281 283 283 277 265 254 247 244 242 239 228 214 205 203 203 197 189 189 193 197 199 199 199 199 200 200 195 189 185 190 199 197 190 192 199 208 218 227 242 267 285 298 310 318 321 320 313 300 292 293 298 308 318 320 318 315 310 307 307
312 310 307 305 304 302 302 303 301 301 300 299 298 297 298 298 296 294 297 293 276 265 271 275 276 278 278 276 277 277 273 267 253 239 232 229 222 212 205 202 198 192 191 195 199 202 203 201 199 199 197 190 180 180 187 193 198 203 204 195 196 206 220 244 269 286 299 312 324 332 322 302 296 293 296 301 309 317 320 316 313 312 311 311 312
314 311 305 304 306 308 308 307 304 303 305 304 301 299 297 296 297 297 298 296 283 273 283 288 283 280 279 277 276 276 273 271 263 248 230 219 213 207 203 201 198 196 198 202 203 202 200 199 198 195 187 177 176 185 193 192 188 193 194 178 186 208 225 249 277 300 319 322 328 332 286 287 298 304 307 310 312 313 312 311 314 319 319 318 316
318 313 309 311 316 317 316 312 305 302 304 305 304 304 303 299 294 292 296 298 289 277 282 295 291 281 276 274 275 275 272 268 265 264 253 227 213 207 205 205 203 200 201 204 204 201 196 194 192 185 178 180 188 193 197 196 194 195 190 178 183 205 216 225 257 283 296 301 303 270 269 295 312 318 316 314 313 314 316 318 320 319 317 314 314
319 313 312 315 316 314 311 308 303 301 301 301 300 302 304 303 297 288 284 288 290 283 281 297 300 287 274 270 269 268 268 265 261 260 259 246 225 216 214 210 203 196 194 194 195 194 190 185 181 177 179 190 197 198 198 197 197 197 189 177 180 196 209 223 245 259 275 291 286 255 297 318 325 319 315 317 321 321 319 315 311 310 313 316 318
317 314 314 314 311 308 306 305 302 299 298 297 296 298 300 301 300 292 282 284 291 288 285 296 302 289 271 265 263 260 258 256 252 249 246 241 238 233 222 210 199 191 185 181 177 176 176 174 173 177 187 195 198 195 194 193 191 187 181 177 182 195 211 228 249 268 284 302 329 303 317 326 323 315 316 320 318 312 307 304 308 317 330 338 339
322 321 318 315 312 310 311 312 309 302 294 290 289 291 295 300 302 294 283 281 286 284 282 295 304 291 271 261 256 249 240 232 226 223 218 219 226 227 215 203 193 184 179 175 171 170 174 174 173 180 193 199 194 188 189 189 183 175 174 179 186 197 213 229 252 283 301 346 66 323 314 316 310 308 311 311 303 299 299 305 319 337 352 357 354
332 326 317 315 316 318 321 326 326 320 306 295 290 289 292 297 298 293 286 285 284 279 280 293 296 285 273 264 248 236 227 217 208 201 196 199 204 204 199 195 189 182 178 177 175 174 173 171 173 183 192 192 187 185 182 175 177 187 195 197 198 203 213 234 291 308 318 359 18 310 300 305 306 308 308 304 300 301 309 325 344 355 359 359 355
330 323 320 321 326 332 333 332 334 338 331 315 307 304 301 297 294 295 298 299 295 291 296 300 286 266 265 266 245 228 222 214 205 200 195 194 195 194 190 186 184 185 186 182 174 167 162 165 177 188 189 181 176 175 165 162 182 206 211 194 190 201 177 102 85 293 292 300 304 302 307 313 319 325 325 319 317 324 335 348 360 2 358 353 348
321 326 335 336 336 340 339 333 334 344 347 337 327 317 309 304 304 305 305 304 304 304 306 301 268 241 249 269 245 225 220 212 206 203 199 196 196 198 196 192 193 198 197 183 166 164 169 175 181 186 184 179 178 175 169 174 195 210 190 155 162 187 182 175 199 225 249 273 290 311 324 329 340 355 354 343 339 341 346 357 6 4 356 349 344
324 333 346 349 344 344 346 344 342 343 343 339 333 326 319 318 320 318 311 312 317 317 305 281 247 212 159 108 194 212 213 211 210 211 211 210 210 208 207 209 209 205 191 171 162 168 175 175 173 177 183 185 183 181 179 180 185 183 166 164 175 180 176 202 233 240 250 275 300 321 332 339 355 11 3 339 330 334 350 7 9 2 354 349 344
332 335 343 351 351 349 352 357 355 349 344 338 333 334 336 336 337 338 333 330 335 337 268 224 187 119 105 117 157 185 199 211 218 218 218 219 214 205 202 207 208 195 176 163 164 173 176 171 170 178 186 185 185 188 187 179 169 166 175 185 187 180 177 202 239 251 259 279 297 314 331 343 1 16 352 316 318 339 8 12 6 359 354 349 344
336 336 339 350 359 1 0 2 2 2 2 356 346 348 356 356 353 350 342 339 357 112 186 200 128 112 118 130 144 163 189 209 216 216 219 218 208 193 187 189 186 177 169 166 169 174 173 167 169 177 180 177 177 182 182 175 169 174 185 194 200 201 203 219 246 264 271 276 288 308 328 344 0 7 338 319 335 7 17 11 4 358 351 346 345
337 344 350 3 20 21 5 357 358 2 7 7 6 10 7 355 353 2 9 15 77 98 56 60 98 116 126 132 138 150 164 173 186 199 207 205 193 179 174 172 168 165 166 167 168 169 168 167 172 177 175 170 169 173 178 181 182 185 192 204 216 223 226 237 251 259 262 267 281 302 322 339 356 360 345 341 6 22 19 11 3 352 346 350 1
336 350 6 23 32 21 3 358 1 2 2 5 11 16 4 349 1 50 76 73 62 61 65 82 108 125 134 140 146 148 141 143 152 160 165 166 162 160 163 166 163 159 155 152 155 164 170 175 180 179 174 174 179 183 188 195 200 201 211 228 242 241 238 243 249 254 258 265 279 301 320 337 352 358 360 16 30 26 17 6 352 344 352 8 15
338 351 11 29 22 11 9 16 18 13 11 18 33 40 34 27 41 66 72 58 46 60 77 81 100 125 133 136 139 138 140 146 148 147 147 148 147 148 154 158 158 153 146 144 153 168 175 179 184 185 184 187 192 193 199 211 215 211 218 230 239 242 248 252 256 257 255 260 283 311 328 343 354 2 18 38 38 25 10 358 352 357 10 19 15
339 348 5 19 11 11 21 28 28 20 16 27 50 61 61 59 58 55 49 46 55 80 88 82 89 115 131 137 142 143 144 146 148 146 143 142 142 143 144 140 136 138 143 149 160 172 176 181 188 193 194 191 185 180 188 207 214 209 204 207 218 240 259 261 252 244 245 270 315 337 350 358 2 6 27 43 37 20 6 5 8 11 15 16 12
344 350 2 11 6 13 22 21 17 13 12 24 57 72 74 77 78 75 71 72 76 82 87 89 103 127 139 143 145 146 145 146 147 144 142 140 141 142 139 133 131 140 153 162 167 172 175 183 190 192 191 189 181 177 181 194 201 190 179 176 174 154 112 134 155 151 109 48 32 29 26 23 17 16 34 46 39 23 16 18 15 10 11 13 9
351 354 5 19 26 27 26 24 25 24 20 26 94 103 93 92 94 93 90 87 87 91 95 98 116 137 147 148 146 145 144 142 139 136 139 140 139 139 142 143 146 153 164 172 175 176 179 190 195 193 193 196 194 192 194 197 186 171 162 143 119 104 98 100 101 94 83 71 61 51 42 36 35 37 43 45 40 31 30 27 17 10 11 9 1
359 357 4 19 28 30 29 35 51 43 33 31 71 120 120 114 106 100 95 94 99 107 116 124 135 144 151 153 150 147 146 143 137 133 137 139 137 138 147 156 159 163 169 177 183 186 193 204 205 202 204 203 193 189 192 191 176 165 149 125 110 101 95 96 95 87 77 69 58 48 39 35 37 42 43 38 33 37 40 31 21 16 10 358 351
18 10 5 10 21 33 37 38 55 69 59 48 50 91 135 135 123 112 103 100 102 112 128 142 146 146 146 148 148 147 148 148 142 137 138 140 141 146 154 160 166 171 176 183 188 190 188 182 181 187 194 192 178 172 181 185 170 157 143 125 114 105 98 96 90 79 70 62 49 39 31 28 33 38 36 28 23 29 38 33 27 20 4 351 353